Location: York
(31.8935°S, 116.7682°E)
Time: 14:07:15
(UTC+08:00)

Altair - All Passes

Search period start: 25 September 2022 00:00
Search period end: 05 October 2022 00:00
Orbit: 1501 x 1682 km, 47.2° (Epoch: 24 September)

Date Brightness Start Highest point End Pass type
(mag) Time Alt. Az. Time Alt. Az. Time Alt. Az.
25 Sep - 01:28:54 10° SW 01:38:08 71° SE 01:47:31 10° ENE visible
25 Sep - 03:34:16 10° WSW 03:42:22 35° NW 03:50:38 10° N visible
25 Sep - 16:41:43 10° N 16:49:43 30° NE 16:57:30 10° ESE daylight
25 Sep - 18:44:15 10° NW 18:53:49 79° SW 19:03:09 10° SE visible
25 Sep - 20:51:16 10° W 20:59:40 35° SSW 21:07:58 10° SE visible
25 Sep - 22:58:39 10° SW 23:06:46 33° S 23:14:52 10° ESE visible
26 Sep - 01:03:45 10° SW 01:12:56 66° SSE 01:22:14 10° ENE visible
26 Sep - 03:08:56 10° WSW 03:17:15 39° NW 03:25:47 10° NNE visible
26 Sep - 16:16:57 10° N 16:24:37 27° NE 16:32:05 10° ESE daylight
26 Sep - 18:19:01 10° NW 18:28:38 85° SW 18:37:59 10° SE visible
26 Sep - 20:25:50 10° W 20:34:21 37° SSW 20:42:44 10° SE visible
26 Sep - 22:33:21 10° SW 22:41:25 32° S 22:49:27 10° ESE visible
27 Sep - 00:38:35 10° SW 00:47:43 62° SSE 00:56:56 10° ENE visible
27 Sep - 02:43:38 10° WSW 02:52:09 43° NW 03:00:50 10° NNE visible
27 Sep - 15:52:15 10° N 15:59:31 24° NE 16:06:36 10° ESE daylight
27 Sep - 17:53:48 10° NW 18:03:26 89° NNE 18:12:49 10° SE daylight
27 Sep - 20:00:24 10° W 20:09:01 38° SSW 20:17:31 10° SE visible
27 Sep - 22:08:03 10° SW 22:16:04 31° S 22:24:03 10° ESE visible
28 Sep - 00:13:25 10° SW 00:22:29 58° SSE 00:31:37 10° ENE visible
28 Sep - 02:18:22 10° WSW 02:27:02 47° NW 02:35:53 10° NNE visible
28 Sep - 15:27:37 10° N 15:34:25 22° NE 15:41:04 10° E daylight
28 Sep - 17:28:36 10° NW 17:38:16 83° NE 17:47:38 10° SE daylight
28 Sep - 19:34:57 10° W 19:43:43 40° SSW 19:52:19 10° SE visible
28 Sep - 21:42:42 10° SW 21:50:43 31° S 21:58:39 10° ESE visible
28 Sep - 23:48:14 10° SW 23:57:15 54° SSE 00:06:17 10° ENE visible
29 Sep - 01:53:06 10° WSW 02:01:55 52° NW 02:10:54 10° NNE night (unlit)
29 Sep - 15:03:05 10° NNE 15:09:20 19° NE 15:15:26 10° E daylight
29 Sep - 17:03:26 10° NW 17:13:05 77° NE 17:22:27 10° SE daylight
29 Sep - 19:09:31 10° W 19:18:25 42° SSW 19:27:07 10° SE visible
29 Sep - 21:17:22 10° WSW 21:25:21 31° S 21:33:16 10° ESE visible
29 Sep - 23:23:03 10° SW 23:32:00 51° SSE 23:40:57 10° ENE visible
30 Sep - 01:27:51 10° WSW 01:36:48 57° NW 01:45:53 10° NNE night (unlit)
30 Sep - 03:38:19 10° WNW 03:40:12 11° WNW 03:42:06 10° NW night (unlit)
30 Sep - 14:38:40 10° NNE 14:44:14 17° NE 14:49:42 10° E daylight
30 Sep - 16:38:17 10° NW 16:47:56 71° NE 16:57:16 10° SE daylight
30 Sep - 18:44:06 10° W 18:53:07 45° SSW 19:01:56 10° SE visible
30 Sep - 20:51:59 10° WSW 21:00:00 31° S 21:07:54 10° ESE visible
30 Sep - 22:57:52 10° SW 23:06:44 48° SSE 23:15:35 10° E visible
01 Oct - 01:02:38 10° WSW 01:11:41 63° NW 01:20:50 10° NNE visible
01 Oct - 03:11:31 10° W 03:15:08 13° WNW 03:18:47 10° NNW night (unlit)
01 Oct - 14:14:26 10° NNE 14:19:09 15° ENE 14:23:47 10° E daylight
01 Oct - 16:13:09 10° NW 16:22:46 66° NE 16:32:04 10° ESE daylight
01 Oct - 18:18:41 10° W 18:27:50 47° SSW 18:36:45 10° SE visible
01 Oct - 20:26:35 10° WSW 20:34:38 31° S 20:42:32 10° ESE visible
01 Oct - 22:32:40 10° SW 22:41:28 45° SSE 22:50:13 10° E visible
02 Oct - 00:37:25 10° SW 00:46:32 69° NW 00:55:45 10° NE visible
02 Oct - 02:45:25 10° W 02:50:04 15° WNW 02:54:47 10° NNW night (unlit)
02 Oct - 13:50:31 10° NE 13:54:04 12° ENE 13:57:34 10° E daylight
02 Oct - 15:48:03 10° NNW 15:57:36 60° NE 16:06:51 10° ESE daylight
02 Oct - 17:53:17 10° WNW 18:02:33 50° SSW 18:11:35 10° SE daylight
02 Oct - 20:01:11 10° WSW 20:09:16 31° S 20:17:13 10° ESE visible
02 Oct - 22:07:27 10° SW 22:16:11 43° SSE 22:24:50 10° E visible
03 Oct - 00:12:12 10° SW 00:21:24 75° NW 00:30:39 10° NE visible
03 Oct - 02:19:33 10° W 02:25:00 17° NW 02:30:31 10° NNW night (unlit)
03 Oct - 13:27:33 10° NE 13:28:58 10° ENE 13:30:23 10° ENE daylight
03 Oct - 15:23:00 10° NNW 15:32:27 55° NE 15:41:37 10° ESE daylight
03 Oct - 17:27:53 10° WNW 17:37:17 54° SSW 17:46:24 10° SE daylight
03 Oct - 19:35:46 10° WSW 19:43:54 31° S 19:51:53 10° SE visible
03 Oct - 21:42:14 10° SW 21:50:54 41° SSE 21:59:26 10° E visible
03 Oct - 23:47:00 10° SW 23:56:15 81° NW 00:05:31 10° NE visible
04 Oct - 01:53:52 10° W 01:59:56 20° NW 02:06:05 10° NNW night (unlit)
04 Oct - 14:57:58 10° NNW 15:07:19 50° NE 15:16:22 10° ESE daylight
04 Oct - 17:02:31 10° WNW 17:12:01 57° SSW 17:21:14 10° SE daylight
04 Oct - 19:10:20 10° WSW 19:18:32 32° S 19:26:34 10° SE visible
04 Oct - 21:17:01 10° SW 21:25:35 39° SSE 21:34:03 10° E visible
04 Oct - 23:21:49 10° SW 23:31:06 87° NW 23:40:22 10° NE visible
